| time (UTC) | temp C | wind direction | speed KPH | gust KPH | rain 1hr cm | rain 24hr cm | rain mn cm | humidity % | barometer mb |
| 20260507082024 | 6 | 347 | 0.0 | 0.0 | 0.00 | 0.13 | 0.00 | 92 | 1014.8 |
| 20260507081524 | 6 | 347 | 0.0 | 0.0 | 0.00 | 0.13 | 0.00 | 92 | 1014.7 |
| 20260507081025 | 6 | 347 | 0.0 | 0.0 | 0.00 | 0.13 | 0.00 | 92 | 1014.8 |
| 20260507080523 | 6 | 347 | 0.0 | 0.0 | 0.00 | 0.13 | 0.00 | 92 | 1014.7 |
| 20260507080023 | 6 | 347 | 0.0 | 0.0 | 0.00 | 0.13 | 0.00 | 91 | 1014.7 |
| 20260507075523 | 6 | 347 | 0.0 | 0.0 | 0.00 | 0.53 | 0.00 | 91 | 1014.8 |
| 20260507075023 | 6 | 347 | 0.0 | 0.0 | 0.00 | 0.53 | 0.00 | 91 | 1014.8 |
| 20260507074523 | 6 | 347 | 0.0 | 0.0 | 0.00 | 0.53 | 0.00 | 91 | 1014.7 |
| 20260507074022 | 6 | 347 | 0.0 | 0.0 | 0.00 | 0.53 | 0.00 | 91 | 1014.7 |
| 20260507073522 | 6 | 347 | 0.0 | 0.0 | 0.00 | 0.53 | 0.00 | 91 | 1014.9 |
| 20260507073122 | 6 | 347 | 0.0 | 0.0 | 0.00 | 0.53 | 0.00 | 91 | 1014.9 |
| 20260507072522 | 6 | 347 | 0.0 | 0.0 | 0.00 | 0.53 | 0.00 | 91 | 1014.9 |
| 20260507072123 | 6 | 347 | 0.0 | 0.0 | 0.00 | 0.53 | 0.00 | 90 | 1014.5 |
| 20260507071522 | 6 | 347 | 0.0 | 0.0 | 0.00 | 0.53 | 0.00 | 90 | 1014.7 |
| 20260507071021 | 6 | 347 | 0.0 | 0.0 | 0.00 | 0.53 | 0.00 | 90 | 1014.7 |
| 20260507070520 | 6 | 347 | 0.0 | 0.0 | 0.00 | 0.53 | 0.00 | 89 | 1014.6 |
| 20260507070023 | 6 | 347 | 0.0 | 0.0 | 0.00 | 0.53 | 0.00 | 89 | 1014.6 |
| 20260507065519 | 6 | 347 | 0.0 | 0.0 | 0.00 | 0.81 | 0.00 | 88 | 1014.7 |
| 20260507065019 | 6 | 347 | 0.0 | 0.0 | 0.00 | 0.81 | 0.00 | 88 | 1014.9 |
| 20260507064518 | 6 | 347 | 0.0 | 0.0 | 0.00 | 0.81 | 0.00 | 88 | 1014.8 |
| 20260507064018 | 6 | 347 | 0.0 | 0.0 | 0.00 | 0.81 | 0.00 | 88 | 1014.9 |
| 20260507063518 | 6 | 347 | 0.0 | 0.0 | 0.00 | 0.81 | 0.00 | 88 | 1014.9 |
| 20260507063017 | 6 | 347 | 0.0 | 0.0 | 0.00 | 0.81 | 0.00 | 88 | 1014.9 |
| 20260507062516 | 6 | 347 | 0.0 | 0.0 | 0.00 | 0.81 | 0.00 | 88 | 1014.7 |
| 20260507062015 | 6 | 347 | 0.0 | 0.0 | 0.00 | 0.81 | 0.00 | 87 | 1014.8 |
| 20260507061515 | 7 | 347 | 0.0 | 0.0 | 0.00 | 0.81 | 0.00 | 87 | 1014.8 |
| 20260507061014 | 7 | 347 | 0.0 | 0.0 | 0.00 | 0.81 | 0.00 | 87 | 1014.7 |
| 20260507060513 | 7 | 347 | 0.0 | 0.0 | 0.00 | 0.81 | 0.00 | 87 | 1014.8 |
| 20260507060012 | 7 | 347 | 0.0 | 0.0 | 0.00 | 1.22 | 0.00 | 87 | 1014.8 |
| 20260507055511 | 7 | 347 | 0.0 | 0.0 | 0.00 | 1.22 | 0.00 | 87 | 1014.8 |
| 20260507055010 | 7 | 347 | 0.0 | 0.0 | 0.00 | 1.22 | 0.00 | 87 | 1014.9 |
| 20260507054511 | 7 | 347 | 0.0 | 0.0 | 0.00 | 1.22 | 0.00 | 86 | 1014.8 |
| 20260507054010 | 7 | 347 | 0.0 | 0.0 | 0.00 | 1.22 | 0.00 | 86 | 1014.9 |
| 20260507053511 | 7 | 347 | 0.0 | 0.0 | 0.00 | 1.22 | 0.00 | 85 | 1015.0 |
| 20260507053009 | 7 | 347 | 0.0 | 0.0 | 0.00 | 1.22 | 0.00 | 85 | 1015.0 |
| 20260507052508 | 7 | 347 | 0.0 | 0.0 | 0.00 | 1.22 | 0.00 | 86 | 1015.0 |
| 20260507052010 | 7 | 347 | 0.0 | 0.0 | 0.00 | 1.22 | 0.00 | 86 | 1015.1 |
| 20260507051508 | 7 | 347 | 0.0 | 0.0 | 0.00 | 1.22 | 0.00 | 86 | 1015.0 |
| 20260507051013 | 7 | 347 | 0.0 | 0.0 | 0.00 | 1.22 | 0.00 | 86 | 1014.8 |
| 20260507050506 | 7 | 347 | 0.0 | 0.0 | 0.00 | 1.22 | 0.00 | 85 | 1014.9 |
| 20260507050020 | 7 | 347 | 0.0 | 0.0 | 0.00 | 1.30 | 0.00 | 85 | 1014.9 |
| 20260507045506 | 8 | 347 | 0.0 | 0.0 | 0.00 | 1.30 | 0.00 | 84 | 1014.9 |
| 20260507045003 | 8 | 347 | 0.0 | 0.0 | 0.00 | 1.30 | 0.00 | 83 | 1015.1 |
| 20260507044502 | 8 | 347 | 0.0 | 0.0 | 0.00 | 1.30 | 0.00 | 82 | 1015.1 |
| 20260507044001 | 8 | 347 | 0.0 | 0.0 | 0.00 | 1.30 | 0.00 | 81 | 1015.2 |
| 20260507043501 | 8 | 347 | 0.0 | 0.0 | 0.00 | 1.30 | 0.00 | 81 | 1015.3 |
| 20260507043101 | 8 | 347 | 0.0 | 0.0 | 0.00 | 1.30 | 0.00 | 81 | 1015.3 |
| 20260507042600 | 8 | 347 | 0.0 | 0.0 | 0.00 | 1.30 | 0.00 | 81 | 1015.4 |
| 20260507042058 | 8 | 347 | 0.0 | 0.0 | 0.00 | 1.30 | 0.00 | 80 | 1015.4 |
| 20260507041557 | 8 | 347 | 0.0 | 0.0 | 0.00 | 1.30 | 0.00 | 80 | 1015.2 |
| 20260507041057 | 9 | 347 | 0.0 | 0.0 | 0.00 | 1.30 | 0.00 | 80 | 1015.3 |
| 20260507040556 | 9 | 347 | 0.0 | 0.0 | 0.00 | 1.30 | 0.00 | 79 | 1015.2 |
| 20260507040058 | 9 | 347 | 0.0 | 0.0 | 0.00 | 1.30 | 0.00 | 79 | 1015.2 |
| 20260507035556 | 9 | 347 | 0.0 | 0.0 | 0.00 | 1.30 | 1.30 | 79 | 1015.2 |
| 20260507035053 | 9 | 347 | 0.0 | 0.0 | 0.00 | 1.30 | 1.30 | 78 | 1015.1 |
| 20260507034556 | 10 | 347 | 0.0 | 0.0 | 0.00 | 1.30 | 1.30 | 77 | 1015.0 |
| 20260507034052 | 10 | 347 | 0.0 | 0.0 | 0.00 | 1.30 | 1.30 | 76 | 1015.0 |
| 20260507033552 | 10 | 347 | 0.0 | 0.0 | 0.00 | 1.30 | 1.30 | 76 | 1014.9 |
| 20260507033052 | 10 | 347 | 0.0 | 0.0 | 0.00 | 1.30 | 1.30 | 75 | 1014.9 |
| 20260507032552 | 10 | 347 | 0.0 | 0.0 | 0.00 | 1.30 | 1.30 | 75 | 1014.9 |
| 20260507032052 | 10 | 347 | 0.0 | 0.0 | 0.00 | 1.30 | 1.30 | 75 | 1014.9 |
| 20260507031554 | 10 | 347 | 0.0 | 0.0 | 0.00 | 1.30 | 1.30 | 75 | 1014.9 |
| 20260507031051 | 10 | 347 | 0.0 | 0.0 | 0.00 | 1.30 | 1.30 | 75 | 1014.9 |
| 20260507030551 | 10 | 347 | 0.0 | 0.0 | 0.00 | 1.30 | 1.30 | 75 | 1014.8 |
| 20260507030051 | 10 | 347 | 0.0 | 0.0 | 0.00 | 1.30 | 1.30 | 74 | 1014.9 |
| 20260507025554 | 10 | 347 | 0.0 | 0.0 | 0.00 | 1.30 | 1.30 | 74 | 1014.9 |
| 20260507025050 | 10 | 347 | 0.0 | 0.0 | 0.00 | 1.30 | 1.30 | 73 | 1014.9 |
| 20260507024550 | 11 | 347 | 0.0 | 0.0 | 0.00 | 1.30 | 1.30 | 73 | 1015.1 |
| 20260507024058 | 11 | 347 | 0.0 | 0.0 | 0.00 | 1.30 | 1.30 | 73 | 1014.9 |
| 20260507023553 | 11 | 347 | 0.0 | 0.0 | 0.00 | 1.30 | 1.30 | 73 | 1015.0 |
| 20260507023048 | 11 | 347 | 0.0 | 0.0 | 0.00 | 1.30 | 1.30 | 73 | 1014.8 |
| 20260507022548 | 11 | 347 | 0.0 | 0.0 | 0.00 | 1.30 | 1.30 | 72 | 1014.8 |
| 20260507022048 | 11 | 347 | 0.0 | 0.0 | 0.00 | 1.30 | 1.30 | 72 | 1014.8 |
| 20260507021557 | 11 | 347 | 0.0 | 0.0 | 0.00 | 1.30 | 1.30 | 72 | 1014.8 |
| 20260507021047 | 11 | 347 | 0.0 | 3.2 | 0.00 | 1.30 | 1.30 | 71 | 1014.6 |
| 20260507020547 | 11 | 347 | 0.0 | 3.2 | 0.00 | 1.30 | 1.30 | 71 | 1014.7 |
| 20260507020047 | 11 | 347 | 1.6 | 3.2 | 0.00 | 1.30 | 1.30 | 72 | 1014.6 |
| 20260507015546 | 11 | 347 | 1.6 | 3.2 | 0.00 | 1.37 | 1.30 | 71 | 1014.6 |
| 20260507015046 | 11 | 347 | 0.0 | 3.2 | 0.00 | 1.37 | 1.30 | 70 | 1014.7 |
| 20260507014546 | 12 | 347 | 0.0 | 3.2 | 0.00 | 1.37 | 1.30 | 70 | 1014.8 |
| 20260507014046 | 12 | 347 | 1.6 | 4.8 | 0.00 | 1.37 | 1.30 | 69 | 1014.7 |
| 20260507013545 | 12 | 347 | 1.6 | 6.4 | 0.00 | 1.37 | 1.30 | 68 | 1014.5 |
| 20260507013045 | 12 | 347 | 1.6 | 6.4 | 0.00 | 1.37 | 1.30 | 68 | 1014.5 |
| 20260507012645 | 12 | 347 | 3.2 | 6.4 | 0.00 | 1.37 | 1.30 | 67 | 1014.4 |
| 20260507012044 | 12 | 347 | 3.2 | 8.0 | 0.00 | 1.37 | 1.30 | 67 | 1014.4 |
| 20260507011548 | 12 | 348 | 3.2 | 6.4 | 0.00 | 1.37 | 1.30 | 66 | 1014.1 |
| 20260507011043 | 12 | 348 | 3.2 | 6.4 | 0.00 | 1.37 | 1.30 | 66 | 1014.1 |
| 20260507010543 | 12 | 349 | 1.6 | 6.4 | 0.00 | 1.37 | 1.30 | 67 | 1014.0 |
| 20260507010045 | 12 | 348 | 3.2 | 8.0 | 0.00 | 1.37 | 1.30 | 66 | 1014.0 |
| 20260507005543 | 12 | 348 | 3.2 | 9.7 | 0.00 | 1.45 | 1.30 | 65 | 1014.1 |
| 20260507005042 | 12 | 347 | 4.8 | 8.0 | 0.00 | 1.45 | 1.30 | 65 | 1014.0 |
| 20260507004542 | 12 | 346 | 3.2 | 9.7 | 0.00 | 1.45 | 1.30 | 66 | 1014.0 |
| 20260507004043 | 12 | 346 | 3.2 | 9.7 | 0.00 | 1.45 | 1.30 | 66 | 1014.0 |
| 20260507003543 | 12 | 355 | 4.8 | 9.7 | 0.00 | 1.45 | 1.30 | 66 | 1013.9 |
| 20260507003041 | 12 | 342 | 3.2 | 8.0 | 0.00 | 1.45 | 1.30 | 66 | 1013.8 |
| 20260507002541 | 12 | 339 | 4.8 | 8.0 | 0.00 | 1.45 | 1.30 | 66 | 1013.9 |
| 20260507002040 | 13 | 336 | 1.6 | 4.8 | 0.00 | 1.45 | 1.30 | 67 | 1013.7 |
| 20260507001541 | 13 | 336 | 1.6 | 6.4 | 0.00 | 1.45 | 1.30 | 66 | 1013.7 |
| 20260507001039 | 13 | 336 | 1.6 | 6.4 | 0.00 | 1.45 | 1.30 | 66 | 1013.7 |
| 20260507000539 | 13 | 336 | 1.6 | 6.4 | 0.00 | 1.45 | 1.30 | 65 | 1013.5 |
| 20260507000038 | 13 | 336 | 3.2 | 6.4 | 0.00 | 1.45 | 1.30 | 65 | 1013.5 |
| 20260506235539 | 13 | 335 | 3.2 | 6.4 | 0.00 | 1.52 | 1.30 | 65 | 1013.5 |
| 20260506235037 | 13 | 335 | 1.6 | 6.4 | 0.00 | 1.52 | 1.30 | 64 | 1013.3 |
| 20260506234548 | 13 | 334 | 3.2 | 8.0 | 0.00 | 1.52 | 1.30 | 64 | 1013.4 |
| 20260506234036 | 13 | 333 | 4.8 | 9.7 | 0.00 | 1.52 | 1.30 | 64 | 1013.3 |
| 20260506233536 | 13 | 351 | 4.8 | 8.0 | 0.00 | 1.52 | 1.30 | 64 | 1013.2 |
| 20260506233036 | 13 | 5 | 1.6 | 6.4 | 0.00 | 1.52 | 1.30 | 65 | 1013.2 |
| 20260506232535 | 13 | 5 | 3.2 | 14.5 | 0.00 | 1.52 | 1.30 | 64 | 1013.0 |
| 20260506232035 | 13 | 5 | 8.0 | 14.5 | 0.00 | 1.52 | 1.30 | 63 | 1013.0 |
| 20260506231535 | 13 | 355 | 3.2 | 16.1 | 0.00 | 1.52 | 1.30 | 64 | 1012.7 |
| 20260506231035 | 13 | 355 | 4.8 | 16.1 | 0.00 | 1.52 | 1.30 | 63 | 1012.7 |
| 20260506230534 | 14 | 342 | 4.8 | 16.1 | 0.00 | 1.52 | 1.30 | 63 | 1012.7 |
| 20260506230034 | 14 | 336 | 4.8 | 16.1 | 0.00 | 1.52 | 1.30 | 63 | 1012.7 |
| 20260506225533 | 14 | 355 | 8.0 | 16.1 | 0.00 | 1.55 | 1.30 | 62 | 1012.7 |
| 20260506225035 | 14 | 329 | 4.8 | 12.9 | 0.00 | 1.55 | 1.30 | 62 | 1012.8 |
| 20260506224534 | 14 | 344 | 3.2 | 12.9 | 0.00 | 1.55 | 1.30 | 62 | 1012.7 |
| 20260506224033 | 14 | 355 | 6.4 | 12.9 | 0.00 | 1.55 | 1.30 | 60 | 1012.7 |
| 20260506223533 | 14 | 349 | 4.8 | 8.0 | 0.00 | 1.55 | 1.30 | 61 | 1012.8 |
| 20260506223033 | 14 | 348 | 3.2 | 9.7 | 0.00 | 1.55 | 1.30 | 60 | 1012.7 |
| 20260506222533 | 14 | 355 | 6.4 | 9.7 | 0.00 | 1.55 | 1.30 | 58 | 1012.6 |
| 20260506222036 | 14 | 320 | 4.8 | 12.9 | 0.00 | 1.55 | 1.30 | 58 | 1012.8 |
| 20260506221533 | 15 | 333 | 6.4 | 14.5 | 0.00 | 1.55 | 1.30 | 59 | 1013.0 |
| 20260506221134 | 15 | 350 | 4.8 | 14.5 | 0.00 | 1.55 | 1.30 | 61 | 1013.0 |
| 20260506220533 | 15 | 303 | 6.4 | 14.5 | 0.00 | 1.55 | 1.30 | 61 | 1013.0 |
| 20260506220036 | 15 | 5 | 6.4 | 14.5 | 0.00 | 1.55 | 1.30 | 59 | 1012.9 |
| 20260506215530 | 15 | 296 | 4.8 | 12.9 | 0.00 | 1.70 | 1.30 | 62 | 1013.1 |
| 20260506215030 | 15 | 316 | 3.2 | 16.1 | 0.00 | 1.70 | 1.30 | 62 | 1013.2 |
| 20260506214532 | 15 | 320 | 6.4 | 16.1 | 0.00 | 1.70 | 1.30 | 60 | 1013.2 |
| 20260506214029 | 15 | 317 | 6.4 | 12.9 | 0.00 | 1.70 | 1.30 | 63 | 1013.0 |
| 20260506213528 | 15 | 329 | 3.2 | 14.5 | 0.00 | 1.70 | 1.30 | 61 | 1012.9 |
| 20260506213031 | 15 | 326 | 6.4 | 14.5 | 0.00 | 1.70 | 1.30 | 61 | 1012.9 |
| 20260506212532 | 15 | 327 | 4.8 | 9.7 | 0.00 | 1.70 | 1.30 | 62 | 1012.7 |
| 20260506212032 | 15 | 329 | 6.4 | 9.7 | 0.00 | 1.70 | 1.30 | 61 | 1012.9 |
| 20260506211529 | 15 | 319 | 3.2 | 12.9 | 0.00 | 1.70 | 1.30 | 61 | 1012.9 |
| 20260506211028 | 15 | 319 | 4.8 | 12.9 | 0.00 | 1.70 | 1.30 | 60 | 1012.6 |
| 20260506210527 | 15 | 328 | 3.2 | 9.7 | 0.00 | 1.70 | 1.30 | 61 | 1012.7 |
| 20260506210034 | 15 | 355 | 6.4 | 14.5 | 0.00 | 1.70 | 1.30 | 60 | 1012.6 |
| 20260506205527 | 15 | 321 | 4.8 | 14.5 | 0.00 | 1.70 | 1.30 | 59 | 1012.6 |
| 20260506205027 | 15 | 306 | 6.4 | 14.5 | 0.00 | 1.70 | 1.30 | 58 | 1012.7 |
| 20260506204544 | 15 | 340 | 6.4 | 14.5 | 0.00 | 1.70 | 1.30 | 58 | 1012.6 |
| 20260506204026 | 16 | 346 | 6.4 | 14.5 | 0.00 | 1.70 | 1.30 | 58 | 1012.7 |
| 20260506203526 | 16 | 275 | 3.2 | 12.9 | 0.00 | 1.70 | 1.30 | 59 | 1012.7 |
| 20260506203030 | 16 | 319 | 1.6 | 9.7 | 0.00 | 1.70 | 1.30 | 59 | 1012.8 |
| 20260506202526 | 16 | 307 | 3.2 | 14.5 | 0.00 | 1.70 | 1.30 | 60 | 1012.8 |
| 20260506202029 | 16 | 321 | 4.8 | 14.5 | 0.00 | 1.70 | 1.30 | 58 | 1012.8 |
| 20260506201532 | 16 | 17 | 4.8 | 16.1 | 0.00 | 1.70 | 1.30 | 57 | 1012.7 |
| 20260506201025 | 16 | 44 | 4.8 | 17.7 | 0.00 | 1.70 | 1.30 | 58 | 1012.7 |
| 20260506200524 | 16 | 47 | 6.4 | 20.9 | 0.00 | 1.70 | 1.30 | 59 | 1012.8 |
| 20260506200024 | 16 | 355 | 11.3 | 20.9 | 0.00 | 1.70 | 1.30 | 57 | 1012.6 |
| 20260506195524 | 16 | 45 | 6.4 | 14.5 | 0.00 | 1.70 | 1.30 | 59 | 1012.6 |
| 20260506195024 | 16 | 38 | 8.0 | 14.5 | 0.00 | 1.70 | 1.30 | 62 | 1012.8 |
| 20260506194524 | 16 | 60 | 9.7 | 14.5 | 0.00 | 1.70 | 1.30 | 61 | 1012.7 |
| 20260506194024 | 16 | 49 | 6.4 | 16.1 | 0.00 | 1.70 | 1.30 | 59 | 1012.8 |
| 20260506193524 | 16 | 56 | 8.0 | 19.3 | 0.00 | 1.70 | 1.30 | 61 | 1012.8 |
| 20260506193023 | 16 | 61 | 9.7 | 19.3 | 0.00 | 1.70 | 1.30 | 60 | 1012.9 |
| 20260506192523 | 16 | 9 | 3.2 | 17.7 | 0.00 | 1.70 | 1.30 | 59 | 1012.7 |
| 20260506192023 | 16 | 346 | 8.0 | 17.7 | 0.00 | 1.70 | 1.30 | 62 | 1012.7 |
| 20260506191523 | 16 | 51 | 6.4 | 16.1 | 0.00 | 1.70 | 1.30 | 58 | 1012.8 |
| 20260506191022 | 16 | 17 | 8.0 | 16.1 | 0.00 | 1.70 | 1.30 | 61 | 1012.7 |
| 20260506190520 | 16 | 302 | 6.4 | 22.5 | 0.00 | 1.70 | 1.30 | 66 | 1012.6 |
| 20260506190020 | 16 | 325 | 11.3 | 22.5 | 0.00 | 1.70 | 1.30 | 63 | 1012.5 |
| 20260506185520 | 16 | 315 | 6.4 | 16.1 | 0.00 | 1.70 | 1.30 | 62 | 1012.6 |
| 20260506185019 | 16 | 332 | 9.7 | 17.7 | 0.00 | 1.70 | 1.30 | 62 | 1012.6 |
| 20260506184519 | 16 | 42 | 8.0 | 17.7 | 0.00 | 1.70 | 1.30 | 62 | 1012.5 |
| 20260506184021 | 16 | 346 | 6.4 | 14.5 | 0.00 | 1.70 | 1.30 | 65 | 1012.4 |
| 20260506183518 | 15 | 355 | 8.0 | 16.1 | 0.00 | 1.70 | 1.30 | 64 | 1012.5 |
| 20260506183017 | 15 | 344 | 4.8 | 19.3 | 0.00 | 1.70 | 1.30 | 67 | 1012.3 |
| 20260506182516 | 15 | 20 | 8.0 | 19.3 | 0.00 | 1.70 | 1.30 | 65 | 1012.3 |
| 20260506182015 | 15 | 59 | 6.4 | 17.7 | 0.00 | 1.70 | 1.30 | 67 | 1012.3 |
| 20260506181520 | 15 | 287 | 1.6 | 14.5 | 0.00 | 1.70 | 1.30 | 67 | 1012.3 |
| 20260506181017 | 15 | 10 | 6.4 | 17.7 | 0.00 | 1.70 | 1.30 | 68 | 1012.4 |
| 20260506180519 | 15 | 65 | 11.3 | 17.7 | 0.00 | 1.70 | 1.30 | 68 | 1012.3 |
| 20260506180015 | 15 | 319 | 6.4 | 14.5 | 0.00 | 1.70 | 1.30 | 69 | 1012.5 |
| 20260506175513 | 15 | 349 | 8.0 | 14.5 | 0.00 | 1.70 | 1.30 | 67 | 1012.4 |
| 20260506175011 | 15 | 38 | 4.8 | 17.7 | 0.00 | 1.70 | 1.30 | 71 | 1012.5 |
| 20260506174510 | 15 | 346 | 9.7 | 17.7 | 0.00 | 1.70 | 1.30 | 71 | 1012.6 |
| 20260506174013 | 14 | 316 | 6.4 | 17.7 | 0.00 | 1.70 | 1.30 | 74 | 1012.7 |
| 20260506173510 | 14 | 323 | 6.4 | 17.7 | 0.00 | 1.70 | 1.30 | 73 | 1012.7 |
| 20260506173009 | 13 | 347 | 6.4 | 14.5 | 0.00 | 1.70 | 1.30 | 73 | 1012.7 |
| 20260506172509 | 13 | 322 | 6.4 | 14.5 | 0.00 | 1.70 | 1.30 | 72 | 1012.8 |
| 20260506172009 | 13 | 335 | 6.4 | 14.5 | 0.00 | 1.70 | 1.30 | 73 | 1012.8 |
| 20260506171518 | 13 | 355 | 4.8 | 14.5 | 0.00 | 1.70 | 1.30 | 73 | 1012.9 |
| 20260506171009 | 13 | 31 | 8.0 | 14.5 | 0.00 | 1.70 | 1.30 | 74 | 1013.0 |
| 20260506170506 | 13 | 15 | 8.0 | 16.1 | 0.00 | 1.70 | 1.30 | 75 | 1012.9 |
| 20260506170008 | 13 | 351 | 8.0 | 16.1 | 0.00 | 1.70 | 1.30 | 77 | 1013.0 |
| 20260506165505 | 13 | 328 | 3.2 | 14.5 | 0.00 | 1.70 | 1.30 | 79 | 1013.0 |
| 20260506165005 | 13 | 32 | 6.4 | 14.5 | 0.00 | 1.70 | 1.30 | 76 | 1012.9 |
| 20260506164505 | 13 | 44 | 1.6 | 14.5 | 0.00 | 1.70 | 1.30 | 78 | 1012.9 |
| 20260506164003 | 12 | 329 | 4.8 | 14.5 | 0.00 | 1.70 | 1.30 | 79 | 1012.9 |
| 20260506163502 | 12 | 55 | 3.2 | 16.1 | 0.00 | 1.70 | 1.30 | 78 | 1012.9 |
| 20260506163002 | 12 | 294 | 8.0 | 16.1 | 0.00 | 1.70 | 1.30 | 79 | 1012.8 |
| 20260506162502 | 12 | 342 | 4.8 | 9.7 | 0.00 | 1.70 | 1.30 | 82 | 1012.5 |
| 20260506162003 | 12 | 74 | 3.2 | 9.7 | 0.00 | 1.70 | 1.30 | 82 | 1012.5 |
| 20260506161606 | 12 | 331 | 3.2 | 12.9 | 0.00 | 1.70 | 1.30 | 82 | 1012.8 |
| 20260506161100 | 12 | 329 | 4.8 | 14.5 | 0.00 | 1.70 | 1.30 | 82 | 1012.9 |
| 20260506160559 | 12 | 317 | 3.2 | 14.5 | 0.00 | 1.70 | 1.30 | 82 | 1012.8 |
| 20260506160200 | 12 | 309 | 6.4 | 12.9 | 0.00 | 1.70 | 1.30 | 83 | 1012.8 |
| 20260506155558 | 12 | 313 | 4.8 | 17.7 | 0.00 | 1.70 | 1.30 | 82 | 1012.7 |
| 20260506155056 | 12 | 309 | 4.8 | 14.5 | 0.00 | 1.70 | 1.30 | 83 | 1012.7 |
| 20260506154557 | 12 | 360 | 6.4 | 12.9 | 0.00 | 1.70 | 1.30 | 85 | 1012.7 |
| 20260506154055 | 11 | 320 | 1.6 | 9.7 | 0.00 | 1.70 | 1.30 | 86 | 1012.6 |
| 20260506153555 | 11 | 322 | 3.2 | 8.0 | 0.00 | 1.70 | 1.30 | 86 | 1012.6 |
| 20260506153054 | 11 | 325 | 4.8 | 8.0 | 0.00 | 1.70 | 1.30 | 87 | 1012.6 |
| 20260506152553 | 11 | 322 | 3.2 | 16.1 | 0.00 | 1.70 | 1.30 | 87 | 1012.7 |
| 20260506152053 | 11 | 311 | 4.8 | 16.1 | 0.00 | 1.70 | 1.30 | 87 | 1012.5 |
| 20260506151604 | 11 | 13 | 8.0 | 16.1 | 0.00 | 1.70 | 1.30 | 87 | 1012.4 |
| 20260506151051 | 11 | 307 | 6.4 | 16.1 | 0.00 | 1.70 | 1.30 | 88 | 1012.2 |
| 20260506150550 | 11 | 26 | 8.0 | 16.1 | 0.00 | 1.70 | 1.30 | 88 | 1012.4 |
| 20260506150050 | 11 | 15 | 9.7 | 16.1 | 0.00 | 1.70 | 1.30 | 90 | 1012.3 |
| 20260506145550 | 11 | 342 | 4.8 | 12.9 | 0.00 | 1.70 | 1.30 | 91 | 1012.3 |
| 20260506145048 | 11 | 321 | 4.8 | 9.7 | 0.00 | 1.70 | 1.30 | 92 | 1012.2 |
| 20260506144548 | 10 | 355 | 3.2 | 9.7 | 0.00 | 1.70 | 1.30 | 93 | 1012.1 |
| 20260506144047 | 10 | 334 | 3.2 | 12.9 | 0.00 | 1.70 | 1.30 | 93 | 1012.1 |
| 20260506143546 | 10 | 355 | 4.8 | 12.9 | 0.00 | 1.70 | 1.30 | 94 | 1012.2 |
| 20260506143052 | 10 | 28 | 4.8 | 9.7 | 0.00 | 1.70 | 1.30 | 95 | 1012.0 |
| 20260506142544 | 10 | 331 | 4.8 | 9.7 | 0.00 | 1.70 | 1.30 | 96 | 1011.9 |
| 20260506142044 | 9 | 49 | 3.2 | 8.0 | 0.00 | 1.70 | 1.30 | 96 | 1011.8 |
| 20260506141543 | 9 | 360 | 1.6 | 9.7 | 0.00 | 1.70 | 1.30 | 96 | 1011.7 |
| 20260506141042 | 8 | 355 | 4.8 | 12.9 | 0.00 | 1.70 | 1.30 | 96 | 1011.7 |
| 20260506140544 | 8 | 5 | 3.2 | 12.9 | 0.00 | 1.70 | 1.30 | 96 | 1011.4 |
| 20260506140041 | 8 | 311 | 4.8 | 12.9 | 0.00 | 1.70 | 1.30 | 96 | 1011.5 |
| 20260506135540 | 8 | 355 | 4.8 | 12.9 | 0.00 | 1.70 | 1.30 | 96 | 1011.3 |
| 20260506135042 | 8 | 17 | 3.2 | 12.9 | 0.00 | 1.70 | 1.30 | 96 | 1011.1 |
| 20260506134540 | 8 | 19 | 6.4 | 12.9 | 0.00 | 1.70 | 1.30 | 97 | 1011.1 |
| 20260506134040 | 8 | 350 | 4.8 | 8.0 | 0.00 | 1.70 | 1.30 | 97 | 1011.4 |
| 20260506133539 | 8 | 348 | 1.6 | 8.0 | 0.00 | 1.70 | 1.30 | 97 | 1011.4 |
| 20260506133040 | 8 | 11 | 3.2 | 8.0 | 0.00 | 1.70 | 1.30 | 97 | 1011.2 |
| 20260506132536 | 8 | 9 | 3.2 | 8.0 | 0.00 | 1.70 | 1.30 | 97 | 1011.3 |
| 20260506132040 | 8 | 5 | 1.6 | 14.5 | 0.00 | 1.70 | 1.30 | 97 | 1011.5 |
| 20260506131536 | 8 | 20 | 3.2 | 14.5 | 0.00 | 1.70 | 1.30 | 97 | 1011.3 |
| 20260506131037 | 8 | 355 | 3.2 | 12.9 | 0.00 | 1.70 | 1.30 | 97 | 1011.3 |
| 20260506130534 | 8 | 22 | 4.8 | 12.9 | 0.00 | 1.70 | 1.30 | 97 | 1011.2 |
| 20260506130033 | 8 | 341 | 4.8 | 12.9 | 0.00 | 1.70 | 1.30 | 97 | 1011.4 |
| 20260506125532 | 8 | 335 | 6.4 | 12.9 | 0.00 | 1.70 | 1.30 | 97 | 1011.3 |
| 20260506125031 | 8 | 311 | 4.8 | 12.9 | 0.00 | 1.70 | 1.30 | 97 | 1011.0 |
| 20260506124530 | 8 | 325 | 4.8 | 14.5 | 0.00 | 1.70 | 1.30 | 97 | 1010.9 |
| 20260506124030 | 8 | 344 | 4.8 | 14.5 | 0.00 | 1.70 | 1.30 | 97 | 1010.7 |
| 20260506123529 | 8 | 24 | 4.8 | 14.5 | 0.00 | 1.70 | 1.30 | 97 | 1010.8 |
| 20260506123029 | 8 | 314 | 4.8 | 9.7 | 0.00 | 1.70 | 1.30 | 97 | 1010.8 |
| 20260506122528 | 7 | 340 | 4.8 | 9.7 | 0.00 | 1.70 | 1.30 | 97 | 1010.7 |
| 20260506122027 | 7 | 328 | 4.8 | 14.5 | 0.00 | 1.70 | 1.30 | 97 | 1010.7 |
| 20260506121527 | 7 | 323 | 4.8 | 16.1 | 0.00 | 1.70 | 1.30 | 97 | 1010.3 |
| 20260506121026 | 7 | 343 | 4.8 | 16.1 | 0.00 | 1.70 | 1.30 | 97 | 1010.4 |
| 20260506120525 | 8 | 336 | 3.2 | 12.9 | 0.00 | 1.70 | 1.30 | 97 | 1010.4 |
| 20260506120025 | 8 | 355 | 6.4 | 12.9 | 0.00 | 1.70 | 1.30 | 97 | 1010.3 |
| 20260506115525 | 8 | 9 | 4.8 | 9.7 | 0.00 | 1.70 | 1.30 | 97 | 1010.3 |
| 20260506115022 | 7 | 313 | 3.2 | 16.1 | 0.00 | 1.70 | 1.30 | 96 | 1010.2 |
| 20260506114530 | 7 | 306 | 4.8 | 16.1 | 0.00 | 1.70 | 1.30 | 97 | 1009.9 |
| 20260506114021 | 7 | 310 | 4.8 | 12.9 | 0.00 | 1.70 | 1.30 | 96 | 1009.7 |
| 20260506113519 | 7 | 360 | 4.8 | 14.5 | 0.00 | 1.70 | 1.30 | 96 | 1009.8 |
| 20260506113019 | 7 | 344 | 3.2 | 14.5 | 0.00 | 1.70 | 1.30 | 96 | 1009.6 |
| 20260506112516 | 7 | 360 | 4.8 | 9.7 | 0.00 | 1.70 | 1.30 | 96 | 1009.4 |
| 20260506112016 | 7 | 5 | 3.2 | 12.9 | 0.00 | 1.70 | 1.30 | 96 | 1009.1 |
| 20260506111515 | 7 | 338 | 6.4 | 12.9 | 0.00 | 1.70 | 1.30 | 96 | 1009.2 |
| 20260506111015 | 7 | 355 | 3.2 | 9.7 | 0.00 | 1.70 | 1.30 | 96 | 1009.0 |
| 20260506110520 | 7 | 329 | 4.8 | 12.9 | 0.00 | 1.70 | 1.30 | 96 | 1009.1 |
| 20260506110013 | 7 | 349 | 4.8 | 12.9 | 0.00 | 1.70 | 1.30 | 96 | 1008.8 |
| 20260506105512 | 7 | 35 | 3.2 | 14.5 | 0.00 | 1.70 | 1.30 | 96 | 1008.6 |
| 20260506105013 | 7 | 355 | 4.8 | 16.1 | 0.00 | 1.70 | 1.30 | 96 | 1008.4 |
| 20260506104510 | 7 | 337 | 4.8 | 16.1 | 0.00 | 1.70 | 1.30 | 96 | 1008.4 |
| 20260506104010 | 7 | 350 | 8.0 | 17.7 | 0.00 | 1.70 | 1.30 | 96 | 1008.4 |
| 20260506103508 | 7 | 5 | 8.0 | 14.5 | 0.00 | 1.70 | 1.30 | 96 | 1008.2 |
| 20260506103014 | 7 | 345 | 8.0 | 14.5 | 0.00 | 1.70 | 1.30 | 96 | 1008.1 |
| 20260506102507 | 7 | 340 | 4.8 | 12.9 | 0.00 | 1.70 | 1.30 | 96 | 1008.1 |
| 20260506102007 | 7 | 346 | 6.4 | 14.5 | 0.00 | 1.70 | 1.30 | 96 | 1007.9 |
| 20260506101509 | 7 | 40 | 3.2 | 16.1 | 0.00 | 1.70 | 1.30 | 96 | 1007.6 |
| 20260506101010 | 7 | 338 | 6.4 | 16.1 | 0.00 | 1.70 | 1.30 | 96 | 1007.7 |
| 20260506100508 | 7 | 336 | 4.8 | 16.1 | 0.00 | 1.70 | 1.30 | 96 | 1007.7 |
| 20260506100005 | 7 | 344 | 4.8 | 14.5 | 0.00 | 1.70 | 1.30 | 96 | 1007.7 |
| 20260506095505 | 7 | 5 | 4.8 | 17.7 | 0.00 | 1.70 | 1.30 | 96 | 1007.8 |
| 20260506095005 | 8 | 338 | 9.7 | 25.7 | 0.03 | 1.70 | 1.30 | 96 | 1008.0 |
| 20260506094513 | 8 | 344 | 12.9 | 25.7 | 0.03 | 1.70 | 1.30 | 96 | 1007.7 |
| 20260506094004 | 8 | 326 | 8.0 | 20.9 | 0.03 | 1.70 | 1.30 | 96 | 1008.1 |
| 20260506093501 | 8 | 350 | 12.9 | 22.5 | 0.05 | 1.70 | 1.30 | 96 | 1007.9 |
| 20260506093105 | 8 | 337 | 12.9 | 22.5 | 0.05 | 1.70 | 1.30 | 96 | 1007.9 |
| 20260506092559 | 8 | 15 | 6.4 | 16.1 | 0.05 | 1.70 | 1.30 | 96 | 1007.8 |
| 20260506092058 | 8 | 18 | 4.8 | 19.3 | 0.08 | 1.70 | 1.30 | 96 | 1007.5 |
| 20260506091558 | 8 | 336 | 6.4 | 24.1 | 0.08 | 1.70 | 1.30 | 96 | 1007.4 |
| 20260506091056 | 9 | 32 | 11.3 | 25.7 | 0.10 | 1.70 | 1.30 | 96 | 1007.3 |
| 20260506090602 | 9 | 55 | 11.3 | 27.4 | 0.13 | 1.70 | 1.30 | 95 | 1007.1 |
| 20260506090053 | 10 | 43 | 11.3 | 27.4 | 0.13 | 1.70 | 1.30 | 96 | 1007.0 |
| 20260506085552 | 10 | 328 | 8.0 | 14.5 | 0.18 | 1.70 | 1.30 | 96 | 1007.0 |
| 20260506085053 | 10 | 22 | 4.8 | 14.5 | 0.18 | 1.68 | 1.27 | 96 | 1006.8 |
| 20260506084552 | 10 | 333 | 6.4 | 24.1 | 0.20 | 1.68 | 1.27 | 96 | 1006.8 |
| 20260506084049 | 10 | 336 | 11.3 | 24.1 | 0.20 | 1.68 | 1.27 | 96 | 1006.6 |
| 20260506083547 | 11 | 319 | 9.7 | 20.9 | 0.20 | 1.65 | 1.24 | 96 | 1006.7 |
| 20260506083046 | 11 | 355 | 12.9 | 20.9 | 0.23 | 1.65 | 1.24 | 96 | 1006.5 |
| 20260506082545 | 11 | 338 | 8.0 | 29.0 | 0.25 | 1.65 | 1.24 | 96 | 1006.4 |